User: anonymous   Login
Location: Unspecified
(0.0000°N, 0.0000°E)
Time: 12:40:34
(UTC+00:00)
Language:

HAIYANG 2A - Orbit

View from above orbital plane
View from above orbital plane
View from above satellite
View from above satellite

Ground track
Ground track

The orbit data is extracted from the following two-line orbital elements,

1 37781U 11043A   18201.19853271 -.00000106  00000-0 -60617-4 0  9996
2 37781  99.3226 210.8099 0001478  50.6037 309.5259 13.78716283348823
Epoch (UTC): 20 July 2018 04:45:53
Eccentricity: 0.0001478
inclination: 99.3226°
perigee height: 967 km
apogee height: 969 km
right ascension of ascending node: 210.8099°
argument of perigee: 50.6037°
revolutions per day: 13.78716283
mean anomaly at epoch: 309.5259°
orbit number at epoch: 34882

The dashed part of the orbit path shows where the satellite is in the earth's shadow,  

DLR